Time,TemperatureF,DewpointF,PressureIn,WindDirection,WindDirectionDegrees,WindSpeedMPH,WindSpeedGustMPH,Humidity,HourlyPrecipIn,Conditions,Clouds,dailyrainin,SoftwareType,DateUTC
2013-08-30 00:03:00,73.3,70.0,29.99,West,262,1.0,2.0,89,0.00,,,0.00,weatherlink.com 1.10,2013-08-30 04:03:00,
2013-08-30 00:18:00,73.0,70.0,30.00,WNW,302,0.0,2.0,89,0.00,,,0.00,weatherlink.com 1.10,2013-08-30 04:18:00,
2013-08-30 00:33:00,72.7,69.0,29.99,WSW,257,1.0,3.0,89,0.00,,,0.00,weatherlink.com 1.10,2013-08-30 04:33:00,
2013-08-30 00:48:00,72.4,69.0,29.99,WSW,256,0.0,1.0,89,0.00,,,0.00,weatherlink.com 1.10,2013-08-30 04:48:00,
2013-08-30 01:03:00,72.2,69.0,29.99,SW,228,0.0,2.0,90,0.00,,,0.00,weatherlink.com 1.10,2013-08-30 05:03:00,
2013-08-30 01:18:00,71.8,69.0,29.98,NW,307,0.0,1.0,90,0.00,,,0.00,weatherlink.com 1.10,2013-08-30 05:18:00,
2013-08-30 01:33:00,71.5,69.0,29.97,West,272,0.0,2.0,91,0.00,,,0.00,weatherlink.com 1.10,2013-08-30 05:33:00,
2013-08-30 01:48:00,71.3,69.0,29.97,West,273,0.0,1.0,91,0.00,,,0.00,weatherlink.com 1.10,2013-08-30 05:48:00,
2013-08-30 02:03:00,71.0,69.0,29.97,NW,304,0.0,3.0,92,0.00,,,0.00,weatherlink.com 1.10,2013-08-30 06:03:00,
2013-08-30 02:18:00,70.6,68.0,29.97,WNW,295,0.0,1.0,92,0.00,,,0.00,weatherlink.com 1.10,2013-08-30 06:18:00,
2013-08-30 02:33:00,70.3,68.0,29.97,WNW,297,0.0,1.0,93,0.00,,,0.00,weatherlink.com 1.10,2013-08-30 06:33:00,
2013-08-30 02:48:00,70.1,68.0,29.97,WNW,300,0.0,1.0,93,0.00,,,0.00,weatherlink.com 1.10,2013-08-30 06:48:00,
2013-08-30 03:03:00,69.9,68.0,29.97,WNW,299,0.0,1.0,94,0.00,,,0.00,weatherlink.com 1.10,2013-08-30 07:03:00,
2013-08-30 03:18:00,69.6,68.0,29.97,WNW,299,0.0,1.0,94,0.00,,,0.00,weatherlink.com 1.10,2013-08-30 07:18:00,
2013-08-30 03:34:00,69.3,68.0,29.97,NW,310,0.0,1.0,94,0.00,,,0.00,weatherlink.com 1.10,2013-08-30 07:34:00,
2013-08-30 03:48:00,69.1,68.0,29.98,NW,304,0.0,1.0,95,0.00,,,0.00,weatherlink.com 1.10,2013-08-30 07:48:00,
2013-08-30 04:03:00,69.0,68.0,29.97,WNW,298,0.0,2.0,95,0.00,,,0.00,weatherlink.com 1.10,2013-08-30 08:03:00,
2013-08-30 04:19:00,68.8,67.0,29.98,WNW,298,0.0,1.0,95,0.00,,,0.00,weatherlink.com 1.10,2013-08-30 08:19:00,
2013-08-30 04:33:00,68.7,68.0,29.97,WNW,288,0.0,1.0,96,0.00,,,0.00,weatherlink.com 1.10,2013-08-30 08:33:00,
2013-08-30 04:48:00,68.5,67.0,29.98,WNW,302,0.0,2.0,96,0.00,,,0.00,weatherlink.com 1.10,2013-08-30 08:48:00,
2013-08-30 05:03:00,68.3,67.0,29.97,WNW,302,0.0,1.0,96,0.00,,,0.00,weatherlink.com 1.10,2013-08-30 09:03:00,
2013-08-30 05:18:00,68.2,67.0,29.98,WNW,302,0.0,1.0,96,0.00,,,0.00,weatherlink.com 1.10,2013-08-30 09:18:00,
2013-08-30 05:33:00,68.2,67.0,29.98,WNW,295,1.0,1.0,96,0.00,,,0.00,weatherlink.com 1.10,2013-08-30 09:33:00,
2013-08-30 05:48:00,68.1,67.0,29.99,WNW,299,0.0,2.0,96,0.00,,,0.00,weatherlink.com 1.10,2013-08-30 09:48:00,
2013-08-30 06:03:00,67.8,67.0,29.99,WNW,301,0.0,1.0,97,0.00,,,0.00,weatherlink.com 1.10,2013-08-30 10:03:00,
2013-08-30 06:18:00,67.7,67.0,30.00,NW,307,1.0,1.0,97,0.00,,,0.00,weatherlink.com 1.10,2013-08-30 10:18:00,
2013-08-30 06:33:00,67.7,67.0,30.00,WNW,297,0.0,2.0,97,0.00,,,0.00,weatherlink.com 1.10,2013-08-30 10:33:00,
2013-08-30 06:48:00,67.6,67.0,30.01,WNW,295,1.0,2.0,97,0.00,,,0.00,weatherlink.com 1.10,2013-08-30 10:48:00,
2013-08-30 07:03:00,67.5,67.0,30.02,WNW,302,0.0,2.0,97,0.00,,,0.00,weatherlink.com 1.10,2013-08-30 11:03:00,
2013-08-30 07:18:00,67.5,67.0,30.02,NW,315,1.0,2.0,97,0.00,,,0.00,weatherlink.com 1.10,2013-08-30 11:18:00,
2013-08-30 07:33:00,67.9,67.0,30.02,NW,309,0.0,2.0,97,0.00,,,0.00,weatherlink.com 1.10,2013-08-30 11:33:00,
2013-08-30 07:49:00,68.5,68.0,30.03,WNW,301,1.0,2.0,97,0.00,,,0.00,weatherlink.com 1.10,2013-08-30 11:49:00,
2013-08-30 08:04:00,69.3,69.0,30.03,North,349,0.0,3.0,97,0.00,,,0.00,weatherlink.com 1.10,2013-08-30 12:04:00,
2013-08-30 08:19:00,70.1,69.0,30.03,NNW,348,0.0,3.0,97,0.00,,,0.00,weatherlink.com 1.10,2013-08-30 12:19:00,
2013-08-30 08:34:00,71.2,70.0,30.03,NW,316,0.0,4.0,96,0.00,,,0.00,weatherlink.com 1.10,2013-08-30 12:34:00,
2013-08-30 08:49:00,72.8,71.0,30.04,WNW,301,1.0,3.0,95,0.00,,,0.00,weatherlink.com 1.10,2013-08-30 12:49:00,
2013-08-30 09:04:00,74.2,72.0,30.04,NNW,336,0.0,6.0,94,0.00,,,0.00,weatherlink.com 1.10,2013-08-30 13:04:00,
2013-08-30 09:19:00,75.5,73.0,30.04,NW,312,1.0,4.0,92,0.00,,,0.00,weatherlink.com 1.10,2013-08-30 13:19:00,
2013-08-30 09:34:00,76.5,74.0,30.04,NE,55,1.0,4.0,90,0.00,,,0.00,weatherlink.com 1.10,2013-08-30 13:34:00,
2013-08-30 09:49:00,76.9,73.0,30.04,WNW,291,0.0,5.0,88,0.00,,,0.00,weatherlink.com 1.10,2013-08-30 13:49:00,
2013-08-30 10:04:00,78.2,74.0,30.04,ENE,58,1.0,7.0,86,0.00,,,0.00,weatherlink.com 1.10,2013-08-30 14:04:00,
2013-08-30 10:20:00,78.0,73.0,30.04,ESE,117,0.0,4.0,84,0.00,,,0.00,weatherlink.com 1.10,2013-08-30 14:20:00,
2013-08-30 10:34:00,77.6,73.0,30.04,ENE,68,3.0,12.0,86,0.00,,,0.00,weatherlink.com 1.10,2013-08-30 14:34:00,
2013-08-30 10:49:00,78.1,74.0,30.04,ENE,63,5.0,9.0,87,0.00,,,0.00,weatherlink.com 1.10,2013-08-30 14:49:00,
2013-08-30 11:04:00,78.5,74.0,30.04,East,87,3.0,9.0,85,0.00,,,0.00,weatherlink.com 1.10,2013-08-30 15:04:00,
2013-08-30 11:19:00,78.7,74.0,30.04,ENE,60,3.0,8.0,85,0.00,,,0.00,weatherlink.com 1.10,2013-08-30 15:19:00,
2013-08-30 11:34:00,79.1,75.0,30.03,East,98,3.0,8.0,86,0.00,,,0.00,weatherlink.com 1.10,2013-08-30 15:34:00,
2013-08-30 11:49:00,78.3,74.0,30.03,East,93,6.0,9.0,85,0.00,,,0.00,weatherlink.com 1.10,2013-08-30 15:49:00,
2013-08-30 12:04:00,78.4,74.0,30.02,ESE,102,6.0,8.0,85,0.00,,,0.00,weatherlink.com 1.10,2013-08-30 16:04:00,
2013-08-30 12:19:00,78.1,74.0,30.02,East,82,6.0,8.0,86,0.00,,,0.00,weatherlink.com 1.10,2013-08-30 16:19:00,
2013-08-30 12:34:00,78.8,74.0,30.02,ESE,103,5.0,7.0,85,0.00,,,0.00,weatherlink.com 1.10,2013-08-30 16:34:00,
2013-08-30 12:49:00,79.6,75.0,30.02,East,82,5.0,7.0,85,0.00,,,0.00,weatherlink.com 1.10,2013-08-30 16:49:00,
2013-08-30 13:04:00,79.9,75.0,30.01,ENE,65,5.0,8.0,84,0.00,,,0.00,weatherlink.com 1.10,2013-08-30 17:04:00,
2013-08-30 13:19:00,80.1,75.0,30.01,East,79,6.0,6.0,83,0.00,,,0.00,weatherlink.com 1.10,2013-08-30 17:19:00,
2013-08-30 13:34:00,80.2,75.0,30.01,East,82,4.0,6.0,84,0.00,,,0.00,weatherlink.com 1.10,2013-08-30 17:34:00,
2013-08-30 13:49:00,80.3,75.0,30.01,ENE,77,5.0,7.0,84,0.00,,,0.00,weatherlink.com 1.10,2013-08-30 17:49:00,
2013-08-30 14:04:00,80.2,75.0,30.01,East,80,5.0,7.0,83,0.00,,,0.00,weatherlink.com 1.10,2013-08-30 18:04:00,
2013-08-30 14:19:00,80.1,75.0,30.00,East,91,2.0,8.0,84,0.00,,,0.00,weatherlink.com 1.10,2013-08-30 18:19:00,
2013-08-30 14:34:00,80.3,75.0,30.00,East,100,5.0,8.0,83,0.00,,,0.00,weatherlink.com 1.10,2013-08-30 18:34:00,
2013-08-30 14:49:00,80.6,75.0,30.00,SE,136,2.0,6.0,83,0.00,,,0.00,weatherlink.com 1.10,2013-08-30 18:49:00,
2013-08-30 15:04:00,80.3,74.0,29.99,East,79,9.0,10.0,82,0.00,,,0.00,weatherlink.com 1.10,2013-08-30 19:04:00,
2013-08-30 15:19:00,80.3,74.0,29.98,East,93,4.0,9.0,82,0.00,,,0.00,weatherlink.com 1.10,2013-08-30 19:19:00,
2013-08-30 15:34:00,80.5,74.0,29.98,East,92,4.0,9.0,80,0.00,,,0.00,weatherlink.com 1.10,2013-08-30 19:34:00,
2013-08-30 15:49:00,80.7,73.0,29.98,East,84,3.0,8.0,78,0.00,,,0.00,weatherlink.com 1.10,2013-08-30 19:49:00,
2013-08-30 16:04:00,81.1,74.0,29.98,ENE,72,3.0,9.0,80,0.00,,,0.00,weatherlink.com 1.10,2013-08-30 20:04:00,
2013-08-30 16:19:00,80.8,74.0,29.98,East,85,4.0,7.0,79,0.00,,,0.00,weatherlink.com 1.10,2013-08-30 20:19:00,
2013-08-30 16:34:00,80.8,75.0,29.98,East,79,2.0,8.0,81,0.00,,,0.00,weatherlink.com 1.10,2013-08-30 20:34:00,
2013-08-30 16:49:00,80.5,75.0,29.98,East,101,5.0,10.0,82,0.00,,,0.00,weatherlink.com 1.10,2013-08-30 20:49:00,
2013-08-30 17:04:00,80.2,74.0,29.98,ENE,65,3.0,7.0,81,0.00,,,0.00,weatherlink.com 1.10,2013-08-30 21:04:00,
2013-08-30 17:19:00,80.1,74.0,29.98,East,79,3.0,8.0,82,0.00,,,0.00,weatherlink.com 1.10,2013-08-30 21:19:00,
2013-08-30 17:34:00,79.9,74.0,29.98,ENE,77,3.0,7.0,82,0.00,,,0.00,weatherlink.com 1.10,2013-08-30 21:34:00,
2013-08-30 17:49:00,79.8,74.0,29.98,ENE,77,3.0,6.0,81,0.00,,,0.00,weatherlink.com 1.10,2013-08-30 21:49:00,
2013-08-30 18:04:00,79.7,73.0,29.98,ENE,73,3.0,5.0,81,0.00,,,0.00,weatherlink.com 1.10,2013-08-30 22:04:00,
2013-08-30 18:19:00,79.7,73.0,29.97,ENE,61,2.0,4.0,81,0.00,,,0.00,weatherlink.com 1.10,2013-08-30 22:19:00,
2013-08-30 18:34:00,80.1,73.0,29.96,ESE,118,5.0,7.0,80,0.00,,,0.00,weatherlink.com 1.10,2013-08-30 22:34:00,
2013-08-30 18:49:00,80.3,74.0,29.96,ESE,120,4.0,5.0,80,0.00,,,0.00,weatherlink.com 1.10,2013-08-30 22:49:00,
2013-08-30 19:04:00,80.2,74.0,29.96,SE,124,5.0,7.0,80,0.00,,,0.00,weatherlink.com 1.10,2013-08-30 23:04:00,
2013-08-30 19:19:00,80.2,74.0,29.97,ESE,120,4.0,7.0,82,0.00,,,0.00,weatherlink.com 1.10,2013-08-30 23:19:00,
2013-08-30 19:34:00,79.9,74.0,29.97,SE,131,7.0,10.0,82,0.00,,,0.00,weatherlink.com 1.10,2013-08-30 23:34:00,
2013-08-30 19:49:00,79.5,74.0,29.97,SE,124,8.0,9.0,83,0.00,,,0.00,weatherlink.com 1.10,2013-08-30 23:49:00,
2013-08-30 20:04:00,79.3,74.0,29.98,SE,127,8.0,10.0,84,0.00,,,0.00,weatherlink.com 1.10,2013-08-31 00:04:00,
2013-08-30 20:20:00,78.8,75.0,29.98,SE,143,5.0,10.0,87,0.00,,,0.00,weatherlink.com 1.10,2013-08-31 00:20:00,
2013-08-30 20:35:00,78.2,74.0,29.99,SE,125,5.0,10.0,87,0.00,,,0.00,weatherlink.com 1.10,2013-08-31 00:35:00,
2013-08-30 20:50:00,78.0,74.0,29.99,SE,131,7.0,8.0,88,0.00,,,0.00,weatherlink.com 1.10,2013-08-31 00:50:00,
2013-08-30 21:05:00,77.8,74.0,29.99,SE,134,7.0,9.0,88,0.00,,,0.00,weatherlink.com 1.10,2013-08-31 01:05:00,
2013-08-30 21:20:00,77.9,75.0,29.99,SE,131,5.0,8.0,89,0.00,,,0.00,weatherlink.com 1.10,2013-08-31 01:20:00,
2013-08-30 21:35:00,77.5,74.0,29.99,SE,128,3.0,6.0,89,0.00,,,0.00,weatherlink.com 1.10,2013-08-31 01:35:00,
2013-08-30 21:50:00,77.2,74.0,30.00,East,96,2.0,4.0,89,0.00,,,0.00,weatherlink.com 1.10,2013-08-31 01:50:00,
2013-08-30 22:05:00,77.3,74.0,29.99,ESE,118,2.0,4.0,89,0.00,,,0.00,weatherlink.com 1.10,2013-08-31 02:05:00,
2013-08-30 22:20:00,77.3,74.0,29.99,ESE,107,3.0,5.0,90,0.00,,,0.00,weatherlink.com 1.10,2013-08-31 02:20:00,
2013-08-30 22:35:00,77.4,74.0,29.99,SE,131,4.0,5.0,89,0.00,,,0.00,weatherlink.com 1.10,2013-08-31 02:35:00,
2013-08-30 22:50:00,77.6,75.0,29.99,ENE,78,3.0,4.0,90,0.00,,,0.00,weatherlink.com 1.10,2013-08-31 02:50:00,
2013-08-30 23:05:00,77.2,74.0,29.99,ESE,104,4.0,4.0,90,0.00,,,0.00,weatherlink.com 1.10,2013-08-31 03:05:00,
2013-08-30 23:20:00,77.2,75.0,29.99,East,95,4.0,4.0,91,0.00,,,0.00,weatherlink.com 1.10,2013-08-31 03:20:00,
2013-08-30 23:35:00,75.5,73.0,29.99,East,84,0.0,0.0,90,0.00,,,0.00,weatherlink.com 1.10,2013-08-31 03:35:00,
2013-08-30 23:50:00,74.8,72.0,29.98,North,356,0.0,1.0,92,0.00,,,0.00,weatherlink.com 1.10,2013-08-31 03:50:00,